Stations météo

réclame
Mon MeteoGroup
Dorans, France (7296): Température de l'air & dewpoint: 22.02.2020 20:00:00 - 28.02.2020 20:00:00 (CET)Dorans, France (7296): Température de l'air 5cm: 22.02.2020 20:00:00 - 28.02.2020 20:00:00 (CET)Dorans, France (7296): Température de l'air -20cm & Température de l'air -100cm: 22.02.2020 20:00:00 - 28.02.2020 20:00:00 (CET)Dorans, France (7296): Vitesse du vent & gusts: 22.02.2020 20:00:00 - 28.02.2020 20:00:00 (CET)Dorans, France (7296): Direction du vent: 22.02.2020 20:00:00 - 28.02.2020 20:00:00 (CET)Dorans, France (7296): reduced air pressure: 22.02.2020 20:00:00 - 28.02.2020 20:00:00 (CET)Dorans, France (7296): visibility: 22.02.2020 20:00:00 - 28.02.2020 20:00:00 (CET)Dorans, France (7296): Quantités de précipitations: 22.02.2020 20:00:00 - 28.02.2020 20:00:00 (CET)
Date & Time tt [°C] td [°C] tt 5cm [°C] tt -20cm [°C] tt -100cm [°C] ff [km/h] ff [knt] fx [km/h] fx [knt] dd ppp [hPa] vv [km] rr [mm]
28.02.2020 20:00:00 7,1 -5,0 5,8 6,5 7,8 4 2 8 4 WNW 1016,2 20 0,0
28.02.2020 19:00:00 7,3 -5,4 5,9 6,4 7,8 3 1 4 2 S 1016,6 20 0,0
28.02.2020 18:00:00 8,3 -6,7 7,6 6,3 7,8 3 2 10 6 W 1016,8 20 0,0
28.02.2020 17:00:00 8,5 -7,7 8,2 6,2 7,8 9 5 23 12 WSW 1017,3 20 0,0
28.02.2020 16:00:00 8,9 -7,3 9,7 6,0 7,8 13 7 26 14 SSW 1017,8 20 0,0
28.02.2020 15:00:00 9,2 -7,1 11,4 5,7 7,8 15 8 33 18 SSW 1018,4 20 0,0
28.02.2020 14:00:00 8,8 -6,6 13,4 5,5 7,8 10 6 26 14 SSW 1019,7 20 0,0
28.02.2020 13:00:00 8,0 -5,1 12,7 5,3 7,8 7 4 22 12 S 1021,0 20 0,0
28.02.2020 12:00:00 6,7 -4,1 10,1 5,1 7,8 6 3 29 16 SSE 1022,2 20 0,0
28.02.2020 11:00:00 5,9 -2,7 6,8 5,0 7,8 11 6 31 17 SW 1022,9 20 0,0
28.02.2020 10:00:00 4,6 -0,2 4,0 5,0 7,8 7 4 15 8 S 1023,3 20 0,0
28.02.2020 09:00:00 3,0 -0,5 1,1 5,1 7,9 5 3 23 13 WSW 1023,9 20 0,0
28.02.2020 08:00:00 0,7 -1,1 -1,7 5,2 7,8 9 5 18 10 WSW 1024,1 20 0,0
28.02.2020 07:00:00 0,4 -1,7 -1,4 5,2 7,9 9 5 17 9 WSW 1023,4 20 0,0
28.02.2020 06:00:00 1,1 -1,5 0,0 5,2 7,8 10 5 25 14 SW 1022,7 20 0,0
28.02.2020 05:00:00 1,7 -1,2 0,8 5,3 7,9 13 7 29 16 WSW 1022,2 20 0,0
28.02.2020 04:00:00 2,0 -1,3 1,4 5,3 7,8 14 7 29 16 SW 1021,4 20 0,0
28.02.2020 03:00:00 2,3 -1,0 1,6 5,4 7,9 16 9 34 19 WSW 1020,7 20 0,0
28.02.2020 02:00:00 2,6 -1,0 2,0 5,5 7,9 10 6 26 14 WSW 1019,8 20 0,0
28.02.2020 01:00:00 2,7 -1,3 2,0 5,5 7,9 18 10 49 27 WSW 1018,3 20 0,0
28.02.2020 00:00:00 2,6 -1,0 1,5 5,6 7,9 21 11 59 32 W 1016,4 20 0,0
27.02.2020 23:00:00 2,7 -0,8 2,1 5,6 7,9 29 16 64 35 W 1014,4 20 0,0
27.02.2020 22:00:00 3,0 -0,1 2,3 5,7 7,9 31 17 67 36 W 1013,6 20 0,0
27.02.2020 21:00:00 3,7 -0,5 3,0 5,7 7,9 28 15 64 35 W 1011,9 20 0,0
27.02.2020 20:00:00 4,0 0,5 2,3 5,6 7,9 26 14 73 40 W 1009,5 20 0,2
27.02.2020 19:00:00 5,0 0,4 4,3 5,6 7,9 36 19 91 49 W 1005,7 20 0,0
27.02.2020 18:00:00 7,0 2,7 6,1 5,5 7,9 45 25 106 57 W 1000,3 20 1,2
27.02.2020 17:00:00 8,2 5,8 6,2 5,5 7,9 35 19 71 39 WSW 995,9 20 0,4
27.02.2020 16:00:00 7,0 5,6 5,7 5,5 7,9 28 15 83 45 WSW 996,0 10 1,2
27.02.2020 15:00:00 6,7 4,5 2,7 5,5 7,9 34 18 70 38 WSW 995,9 20 0,2
27.02.2020 14:00:00 2,9 2,8 0,1 5,5 7,9 10 5 29 16 WSW 997,6 12 1,0
27.02.2020 13:00:00 0,4 -0,2 0,0 5,5 7,9 4 2 16 8 NNE 999,7 0,7 2,2
27.02.2020 12:00:00 1,9 -0,2 0,5 5,5 7,9 10 6 29 15 S 1002,1 4,2 0,4
27.02.2020 11:00:00 3,0 -0,1 2,9 5,5 7,9 11 6 35 19 ESE 1004,6 20 0,0
27.02.2020 10:00:00 3,0 0,2 2,1 5,5 7,9 2 1 6 4 ENE 1006,7 20 0,0
27.02.2020 09:00:00 2,0 -1,1 0,5 5,5 7,9 3 2 12 6 S 1008,5 20 0,0
27.02.2020 08:00:00 1,4 -1,0 -0,2 5,6 7,9 8 4 15 8 WSW 1010,6 20 0,0
27.02.2020 07:00:00 1,2 -0,6 0,0 5,6 7,9 7 4 17 9 SW 1011,7 20 0,0
27.02.2020 06:00:00 1,1 -0,1 0,1 5,7 7,9 9 5 22 12 SW 1012,8 20 0,0
27.02.2020 05:00:00 1,4 0,4 0,7 5,8 7,9 13 7 31 17 SW 1013,5 20 0,0
27.02.2020 04:00:00 1,4 0,2 0,7 5,8 7,9 16 8 30 16 SW 1014,0 20 0,0
27.02.2020 03:00:00 1,5 0,5 0,8 5,9 7,9 16 9 34 19 WSW 1014,5 20 0,0
27.02.2020 02:00:00 1,4 0,5 0,6 6,0 7,9 19 10 38 21 SW 1014,6 20 0,0
27.02.2020 01:00:00 1,1 0,4 0,5 6,0 7,9 19 11 35 19 SW 1014,8 20 0,0
27.02.2020 00:00:00 1,0 0,4 0,4 6,1 7,9 15 8 31 17 SW 1014,8 20 0,0
26.02.2020 23:00:00 0,9 0,3 0,5 6,1 7,9 13 7 31 17 WSW 1014,6 20 0,0
26.02.2020 22:00:00 1,0 0,6 0,2 6,2 7,9 11 6 28 15 WSW 1014,5 20 0,0
26.02.2020 21:00:00 0,6 0,3 0,1 6,2 7,9 11 6 21 11 WSW 1013,9 20 0,2
26.02.2020 20:00:00 0,5 0,2 0,0 6,3 7,9 9 5 21 12 W 1013,5 17 0,2
26.02.2020 19:00:00 0,7 0,3 0,0 6,4 7,9 10 6 41 22 WSW 1012,7 3,1 1,0
26.02.2020 18:00:00 1,8 0,6 0,7 6,4 7,9 10 5 19 10 SW 1011,4 20 0,2
26.02.2020 17:00:00 1,4 0,7 0,3 6,4 7,9 5 3 28 15 WNW 1010,9 20 0,6
26.02.2020 16:00:00 0,7 -0,2 0,1 6,4 7,9 19 11 45 24 WNW 1010,4 1,4 0,0
26.02.2020 15:00:00 2,3 0,2 1,6 6,4 7,9 23 12 58 31 WNW 1009,4 20 0,0
26.02.2020 14:00:00 1,5 0,5 0,3 6,4 7,9 25 14 58 32 W 1008,0 19 0,4
26.02.2020 13:00:00 2,0 1,3 0,6 6,4 7,9 17 9 44 24 WSW 1007,6 16 0,4
26.02.2020 12:00:00 1,6 0,6 0,7 6,5 7,9 18 10 40 22 SW 1007,9 20 0,0
26.02.2020 11:00:00 0,8 -0,7 0,5 6,5 7,9 24 13 50 27 WSW 1008,0 20 0,0
26.02.2020 10:00:00 0,6 -0,4 0,0 6,7 7,9 23 12 59 32 W 1007,2 17 0,0
26.02.2020 09:00:00 0,4 -0,2 0,0 6,7 7,9 23 13 53 28 W 1005,5 20 0,8
26.02.2020 08:00:00 0,8 -0,1 0,1 6,8 7,9 24 13 47 26 SW 1004,2 2,7 0,4
26.02.2020 07:00:00 2,5 -0,1 1,7 6,9 7,8 16 9 43 23 WSW 1004,2 20 0,0
26.02.2020 06:00:00 2,8 -0,5 2,3 7,0 7,9 21 11 51 27 WSW 1005,0 20 0,0
26.02.2020 05:00:00 2,8 -0,3 2,4 7,1 7,9 18 10 54 29 WSW 1005,7 20 0,0
26.02.2020 04:00:00 2,9 0,1 2,2 7,2 7,9 26 14 66 35 W 1005,8 20 0,0
26.02.2020 03:00:00 3,1 0,7 1,7 7,3 7,8 27 15 51 28 WSW 1005,7 20 0,0
26.02.2020 02:00:00 2,4 1,7 0,2 7,4 7,8 19 10 73 40 W 1005,5 20 2,4
26.02.2020 01:00:00 4,8 1,8 3,7 7,4 7,8 28 15 69 37 WSW 1004,1 20 0,0
26.02.2020 00:00:00 4,3 3,0 3,7 7,5 7,8 26 14 67 36 WSW 1004,0 8 1,4
25.02.2020 23:00:00 6,5 3,1 5,9 7,5 7,8 23 13 51 27 WSW 1004,3 20 0,0
25.02.2020 22:00:00 6,9 4,0 5,9 7,6 7,8 22 12 44 24 WSW 1004,5 20 0,0
25.02.2020 21:00:00 6,3 4,8 4,8 7,6 7,8 17 9 34 18 SW 1005,0 20 0,0
25.02.2020 20:00:00 6,7 4,9 5,7 7,6 7,8 18 10 35 19 WSW 1005,2 20 0,0
25.02.2020 19:00:00 7,0 5,5 6,1 7,6 7,8 17 9 41 22 W 1005,7 20 0,2
25.02.2020 18:00:00 7,1 5,2 6,1 7,6 7,8 22 12 51 27 WSW 1006,1 5 0,6
25.02.2020 17:00:00 7,8 5,4 6,9 7,6 7,8 24 13 58 31 WSW 1006,4 20 0,2
25.02.2020 16:00:00 8,3 5,9 7,8 7,5 7,8 29 16 55 30 SW 1006,2 20 0,0
25.02.2020 15:00:00 7,7 6,2 6,7 7,5 7,8 21 11 44 24 WSW 1007,1 20 0,0
25.02.2020 14:00:00 6,9 6,2 6,6 7,5 7,8 23 12 55 30 WSW 1007,9 6 0,8
25.02.2020 13:00:00 6,8 5,9 6,3 7,6 7,8 22 12 53 29 SW 1008,8 6 1,5
25.02.2020 12:00:00 6,7 5,6 6,0 7,6 7,8 22 12 42 23 SW 1009,6 17 1,2
25.02.2020 11:00:00 6,3 5,4 5,6 7,6 7,8 22 12 51 28 WSW 1010,4 16 1,4
25.02.2020 10:00:00 5,9 5,0 5,2 7,7 7,8 18 10 43 23 WSW 1010,9 9 1,2
25.02.2020 09:00:00 5,8 4,6 5,0 7,7 7,8 18 10 55 30 WSW 1011,5 8 1,0
25.02.2020 08:00:00 5,6 4,4 4,8 7,8 7,8 19 10 40 22 SW 1011,7 17 0,4
25.02.2020 07:00:00 6,1 3,1 4,4 7,9 7,8 21 12 37 20 WSW 1012,0 20 0,0
25.02.2020 06:00:00 5,7 3,0 4,6 8,0 7,7 17 9 34 18 W 1012,7 20 0,0
25.02.2020 05:00:00 6,0 4,0 4,7 8,1 7,7 14 8 28 15 W 1012,7 20 0,0
25.02.2020 04:00:00 6,6 4,8 5,4 8,1 7,7 12 7 29 15 W 1012,7 20 0,0
25.02.2020 03:00:00 7,2 5,3 5,7 8,3 7,8 9 5 26 14 W 1013,0 20 0,0
25.02.2020 02:00:00 9,2 5,0 7,8 8,3 7,7 15 8 34 19 W 1013,4 20 0,0
25.02.2020 01:00:00 10,8 4,3 9,1 8,4 7,7 18 10 36 19 WSW 1013,4 20 0,0
25.02.2020 00:00:00 11,4 5,9 8,6 8,5 7,7 16 9 29 16 W 1014,0 20 0,0
24.02.2020 23:00:00 12,0 5,2 9,7 8,5 7,7 14 7 29 16 WSW 1014,3 20 0,0
24.02.2020 22:00:00 12,4 5,5 9,9 8,5 7,7 14 7 29 16 WSW 1014,8 20 0,0
24.02.2020 21:00:00 13,0 6,1 11,1 8,6 7,7 17 9 42 23 WSW 1015,4 20 0,0
24.02.2020 20:00:00 13,5 5,6 10,8 8,6 7,7 18 10 35 19 WSW 1015,7 20 0,0
24.02.2020 19:00:00 13,5 6,1 11,1 8,5 7,7 14 8 31 17 W 1015,9 20 0,0
24.02.2020 18:00:00 14,2 6,8 12,5 8,4 7,7 16 9 38 21 WSW 1015,8 20 0,0
24.02.2020 17:00:00 15,4 6,9 15,4 8,2 7,7 22 12 49 26 WSW 1016,5 20 0,0
24.02.2020 16:00:00 15,4 7,7 15,5 8,1 7,7 22 12 42 23 W 1017,8 20 0,0
24.02.2020 15:00:00 14,6 8,5 16,5 7,9 7,7 24 13 44 24 W 1019,0 20 0,0
24.02.2020 14:00:00 14,1 8,9 15,1 7,8 7,7 16 9 55 30 W 1020,5 20 0,0
24.02.2020 13:00:00 12,0 7,9 10,9 7,7 7,7 25 13 46 25 W 1022,1 20 0,0
24.02.2020 12:00:00 10,1 8,4 9,8 7,7 7,7 17 9 36 20 WSW 1023,8 20 0,0
24.02.2020 11:00:00 9,2 8,1 9,1 7,7 7,7 16 8 42 23 W 1024,6 20 0,0
24.02.2020 10:00:00 9,1 8,0 8,9 7,7 7,7 13 7 23 13 W 1025,1 20 0,0
24.02.2020 09:00:00 8,7 8,1 8,3 7,7 7,7 10 5 24 13 W 1025,7 20 0,0
24.02.2020 08:00:00 8,6 8,0 8,2 7,7 7,7 9 5 18 10 W 1026,2 7 0,2
24.02.2020 07:00:00 8,8 8,0 8,2 7,7 7,7 9 5 23 12 WSW 1026,2 6 0,2
24.02.2020 06:00:00 9,7 7,6 8,7 7,7 7,7 12 7 23 13 WSW 1026,7 6 0,0
24.02.2020 05:00:00 10,5 7,4 10,1 7,6 7,7 13 7 31 17 W 1026,9 20 0,0
24.02.2020 04:00:00 10,6 7,5 10,2 7,6 7,7 17 9 34 18 WSW 1026,7 20 0,0
24.02.2020 03:00:00 10,8 7,7 10,3 7,6 7,7 16 9 34 19 WSW 1027,4 20 0,0
24.02.2020 02:00:00 11,0 7,7 10,5 7,5 7,7 17 9 45 25 WSW 1028,0 20 0,0
24.02.2020 01:00:00 11,7 7,8 11,2 7,5 7,7 22 12 43 23 W 1027,9 20 0,0
24.02.2020 00:00:00 12,0 7,7 11,5 7,5 7,7 20 11 49 26 WSW 1027,4 20 0,0
23.02.2020 23:00:00 12,8 7,5 12,2 7,4 7,7 20 11 46 25 W 1027,3 20 0,0
23.02.2020 22:00:00 13,5 6,6 12,9 7,4 7,7 25 14 58 31 W 1026,7 20 0,0
23.02.2020 21:00:00 13,9 5,8 13,1 7,3 7,7 27 15 62 33 WSW 1026,0 20 0,0
23.02.2020 20:00:00 14,6 4,8 13,7 7,3 7,7 22 12 56 30 WSW 1025,8 20 0,0
23.02.2020 19:00:00 14,7 4,1 13,7 7,2 7,7 24 13 60 32 WSW 1025,2 20 0,0
23.02.2020 18:00:00 14,8 3,9 13,7 7,1 7,7 22 12 53 29 WSW 1025,2 20 0,0
23.02.2020 17:00:00 14,6 3,7 13,8 7,0 7,7 24 13 46 25 WSW 1025,0 20 0,0
23.02.2020 16:00:00 15,0 3,2 14,5 6,9 7,7 22 12 56 31 WSW 1024,6 20 0,0
23.02.2020 15:00:00 14,9 3,4 14,5 6,8 7,7 28 15 51 27 WSW 1025,1 20 0,0
23.02.2020 14:00:00 14,6 1,5 14,8 6,7 7,7 27 14 68 37 WSW 1025,5 20 0,0
23.02.2020 13:00:00 14,8 -0,1 12,8 6,7 7,7 24 13 50 27 WSW 1026,1 20 0,0
23.02.2020 12:00:00 13,0 -0,7 12,4 6,6 7,7 22 12 46 25 WSW 1027,8 20 0,0
23.02.2020 11:00:00 12,6 -1,0 10,0 6,6 7,7 19 10 47 26 WSW 1027,7 20 0,0
23.02.2020 10:00:00 11,4 0,2 10,3 6,6 7,7 20 11 44 24 W 1028,9 20 0,0
23.02.2020 09:00:00 10,7 0,7 9,2 6,5 7,7 21 11 41 22 WSW 1028,8 20 0,0
23.02.2020 08:00:00 10,1 0,9 8,1 6,6 7,7 21 11 40 21 WSW 1028,9 20 0,0
23.02.2020 07:00:00 9,1 2,2 6,0 6,6 7,7 16 8 34 19 WSW 1029,0 20 0,0
23.02.2020 06:00:00 7,8 3,5 5,5 6,6 7,7 16 9 29 15 WSW 1029,6 20 0,2
23.02.2020 05:00:00 8,2 2,6 5,8 6,6 7,7 13 7 33 18 WNW 1030,6 14 0,0
23.02.2020 04:00:00 9,0 0,9 8,3 6,6 7,7 16 8 32 17 W 1030,3 20 0,0
23.02.2020 03:00:00 9,3 0,7 8,4 6,6 7,7 14 8 27 15 W 1030,4 20 0,0
23.02.2020 02:00:00 9,3 0,2 8,2 6,7 7,7 13 7 21 11 W 1030,5 20 0,0
23.02.2020 01:00:00 9,1 0,3 8,0 6,7 7,7 13 7 32 18 WSW 1031,1 20 0,0
23.02.2020 00:00:00 9,0 0,2 7,5 6,8 7,7 14 8 25 13 W 1031,9 20 0,0
22.02.2020 23:00:00 8,9 -0,7 7,1 6,8 7,7 16 9 31 17 W 1032,1 20 0,0
22.02.2020 22:00:00 9,4 -1,1 7,6 6,9 7,7 19 10 36 19 W 1031,8 20 0,0
22.02.2020 21:00:00 9,3 -1,7 7,7 6,9 7,7 19 11 35 19 WSW 1031,4 20 0,0
22.02.2020 20:00:00 9,9 -2,4 7,7 6,9 7,7 18 10 31 17 WSW 1031,2 20 0,0

tt = Température de l'air
td = dewpoint
tt 5cm = Température de l'air 5cm
tt -20cm = Température de l'air -20cm
tt -100cm = Température de l'air -100cm
ff = Vitesse du vent
fx = gusts
dd = Direction du vent
ppp = reduced air pressure
vv = visibility
rr = Quantités de précipitations

stations d'obs. à proximité